Location: Bures
(48.6998°N, 2.1706°E)
Time: 04:24:08
(UTC+00:00)

Daily predictions for brighter satellites

Satellite Brightness Start Highest point End
(mag) Time Altitude Azimuth Time Altitude Azimuth Time Altitude Azimuth
USA 215 4.0 03:20:48 10° E 03:25:43 46° ENE 03:25:43 46° ENE
Cosmos 1943 Rocket 2.7 04:06:38 56° ESE 04:06:47 56° ESE 04:12:19 10° NE
CZ-2C R/B 4.0 04:04:44 10° SE 04:09:44 37° ENE 04:13:24 17° N
Cosmos 1241 Rocket 4.5 04:10:32 73° ESE 04:10:32 73° ESE 04:16:07 10° SE
CENTAUR R/B 2.6 04:16:08 65° S 04:16:53 72° SE 04:23:58 10° NE
Cosmos 2297 3.8 04:21:06 66° SSE 04:21:39 72° ESE 04:27:23 10° NNE
NOSS 3-2 (A) 3.2 04:27:49 84° NW 04:27:49 84° NW 04:34:26 10° NE
Cosmos 2278 Rocket 3.8 04:33:50 21° N 04:33:50 21° N 04:36:05 10° NNE
Envisat 4.0 04:30:27 10° NNE 04:35:21 46° E 04:40:13 10° S
NOSS 3-2 (C) 3.5 04:33:35 44° SSW 04:35:25 69° SE 04:41:52 10° NE
SKYMED 2 4.3 04:32:10 10° SSE 04:36:23 52° ENE 04:37:12 45° NNE
Cosmos 2098 Rocket 4.4 04:38:33 10° SSE 04:42:12 39° E 04:46:47 10° NNE
Meteor 2-3 Rocket 3.6 04:36:59 10° S 04:42:40 90° SE 04:48:26 10° NNE
Cosmos 968 Rocket 3.6 04:42:38 23° S 04:45:50 73° ESE 04:50:59 10° NNE
Landsat 5 4.4 04:41:40 10° SE 04:46:03 52° ENE 04:48:26 25° N
Genesis I 4.4 04:49:24 36° SSE 04:49:24 36° SSE 04:51:57 10° SSE
Cosmos 921 Rocket 3.0 04:50:35 82° SSE 04:50:35 82° SSE 04:54:51 10° SSE
DNEPR-1 R/B 4.1 04:53:14 49° NNW 04:54:25 66° NE 04:59:51 10° SE
Meteor 1-26 Rocket 4.2 04:53:50 34° NNW 04:56:31 68° W 05:02:14 10° S
H-2A R/B 4.3 04:53:29 10° ESE 04:56:54 23° ENE 05:00:22 10° N
Cosmos 1812 2.8 04:56:57 73° E 04:56:57 73° E 05:00:45 10° SSE
USA 238 DEB 3.5 05:00:10 32° SW 05:03:29 78° NW 05:10:26 10° NE
USA 238 3.5 05:00:14 31° SW 05:03:35 79° NW 05:10:32 10° NE
Cosmos 1151 Rocket 3.1 05:01:35 29° N 05:03:47 78° E 05:08:10 10° SSE
Cosmos 2344 3.6 05:03:34 37° W 05:06:26 58° NW 05:14:28 10° NE
Cosmos 1766 Rocket 4.1 05:02:39 10° S 05:06:54 58° E 05:11:10 10° NNE
USA 215 3.2 05:03:27 10° SE 05:09:59 76° SW 05:13:03 34° WNW
Kosmos-917 3.8 05:12:30 61° NNW 05:12:30 61° NNW 05:17:21 10° NE
Cosmos 1782 4.5 05:15:55 20° SSW 05:15:55 20° SSW 05:17:21 10° SSW
Meteor 1-31 Rocket 2.8 05:09:57 10° NNE 05:13:51 78° ESE 05:17:46 10° S
Cosmos 2297 Rocket 4.5 05:10:44 10° N 05:14:20 17° NE 05:17:56 10° ENE
Cosmos 2279 Rocket 4.0 05:08:07 10° N 05:14:21 86° E 05:20:33 10° S
Cosmos 1328 Rocket 3.7 05:12:41 14° N 05:16:27 75° E 05:20:49 10° SSE
SJ-12 3.8 05:15:09 10° N 05:19:17 69° WNW 05:23:23 10° SSW
FALCON 9 DEB 2.9 05:21:06 78° NNW 05:21:09 78° NNW 05:24:33 10° ENE
Cosmos 2369 Rocket 2.1 05:15:42 10° SSW 05:21:17 89° WNW 05:26:57 10° NNE
Cosmos 1862 3.3 05:19:13 10° S 05:23:10 81° E 05:27:08 10° NNE
COSMO-SKYMED 1 2.6 05:20:13 10° S 05:24:27 53° W 05:25:48 37° NW
H-2A R/B 2.7 05:23:38 10° N 05:27:15 53° WNW 05:30:54 10° SSW
Cosmos 1634 Rocket 4.1 05:23:17 10° NNW 05:29:20 50° W 05:35:18 10° SSW
CZ-4B R/B 3.8 05:33:10 10° NNE 05:36:36 43° E 05:40:01 10° S
Tsikada Rocket 4.4 05:32:55 10° SW 05:38:36 37° WNW 05:44:23 10° N
CZ-4B R/B 3.6 05:37:43 10° SE 05:40:29 25° ENE 05:43:14 10° N
MOS 1-B Rocket 4.5 05:35:08 10° SSW 05:40:51 36° W 05:44:44 17° NW
YAOGAN 6 4.4 05:38:57 10° N 05:40:14 18° NNW 05:40:14 18° NNW
Cosmos 1408 Rocket 3.9 05:38:01 10° S 05:42:16 64° E 05:46:33 10° NNE
Cosmos 1656 Rocket 3.5 05:39:33 10° SSW 05:44:57 81° WNW 05:50:27 10° NNE
CZ-4C R/B 3.0 05:42:23 10° S 05:45:24 44° W 05:46:01 38° WNW
Cosmos 1503 Rocket 4.1 05:40:11 10° SSW 05:45:27 84° ESE 05:50:49 10° NNE
DMSP B5D2-2 4.0 05:40:38 10° SSE 05:45:52 87° WSW 05:51:07 10° NNW
Cosmos 2227 Rocket 4.2 05:45:46 10° N 05:49:55 20° NE 05:54:01 10° E
CZ-2C R/B 3.2 05:44:57 10° SSW 05:50:00 37° W 05:54:54 11° NNW
Cosmos 1943 Rocket 2.9 05:48:15 22° W 05:50:52 31° NW 05:55:52 10° NNE
Cosmos 1486 Rocket 4.1 05:47:58 10° SW 05:53:10 54° WNW 05:58:22 10° NNE
Cosmos 1515 Rocket 3.4 05:52:23 10° NNW 05:56:47 77° W 06:01:07 10° S
SL-8 R/B 4.0 05:54:22 22° W 05:57:17 54° SSW 06:01:57 10° SE
FALCON 9 DEB 3.5 05:56:51 30° NW 05:57:37 36° N 06:00:21 10° ENE
Meteor 2-15 4.4 05:51:59 10° NNW 05:58:01 69° W 06:04:01 10° S
Cosmos 2180 Rocket 4.5 05:53:33 10° NNW 05:59:37 59° W 06:05:37 10° S
Meteor 1-27 Rocket 3.8 05:54:06 10° NNW 05:59:46 89° E 06:05:30 10° S
COSMOS 2487 3.8 06:00:38 10° N 06:03:46 36° ENE 06:06:54 10° SE
Cosmos 773 Rocket 3.9 05:58:56 10° NNW 06:04:11 75° WSW 06:09:21 10° SSE
FALCON 9 DEB 3.6 06:03:16 25° NW 06:04:16 33° N 06:06:55 10° ENE
FALCON 9 DEB 3.6 06:05:16 24° NW 06:06:21 32° N 06:08:59 10° ENE
SJ 16-02 2.2 06:02:32 10° S 06:06:47 53° ESE 06:11:04 10° NNE
NOAA 11 4.2 06:02:43 10° N 06:08:09 66° WNW 06:13:35 10° SSW
CENTAUR R/B 3.3 06:03:21 15° W 06:08:11 39° NNW 06:15:12 10° NE
Alouette 2 Rocket 3.4 06:06:13 10° N 06:10:15 73° ENE 06:13:47 10° SSE
Meteor 2-19 Rocket 4.4 06:07:17 10° SSW 06:13:19 76° W 06:19:25 10° N
NOAA 12 4.1 06:08:02 10° NNE 06:13:21 88° WNW 06:18:37 10° SSW
Envisat 3.8 06:09:52 10° N 06:14:10 28° WNW 06:18:27 10° WSW
Cosmos 1340 Rocket 3.1 06:11:08 10° S 06:15:03 72° E 06:19:03 10° NNE
Cosmos 2278 Rocket 4.2 06:16:32 10° NNW 06:17:07 10° NNW 06:17:41 10° NNW
SL-27 R/B 2.6 06:14:04 11° NNW 06:17:27 57° WSW 06:20:56 10° S
Cosmos 1500 Rocket 3.6 06:14:02 10° S 06:18:30 87° E 06:23:00 10° N
NOSS 3-2 (A) 4.4 06:15:14 14° WNW 06:19:39 30° NNW 06:25:45 10° NE
Cosmos 1939 Rocket 2.7 06:15:57 10° N 06:19:56 82° WNW 06:23:49 10° SSW
FALCON 9 DEB 3.6 06:21:30 16° WNW 06:23:21 33° N 06:26:01 10° ENE
Cosmos 2098 Rocket 4.2 06:20:14 10° WSW 06:23:32 23° WNW 06:27:26 10° NNW
NOSS 3-2 (C) 4.1 06:21:25 10° W 06:26:51 36° NNW 06:33:09 10° NE
Cosmos 1805 Rocket 3.9 06:25:47 10° S 06:30:08 69° E 06:34:30 10° NNE
Okean O Rocket 3.9 06:26:25 10° NE 06:30:16 28° E 06:34:05 10° SSE
Sich 1 3.8 06:27:47 10° S 06:31:59 56° E 06:36:11 10° NNE
H-2A R/B 2.5 06:28:33 10° S 06:32:36 43° W 06:36:47 10° NNW
Cosmos 2026 Rocket 4.4 06:26:37 10° S 06:32:56 73° E 06:39:13 10° NNE
Meteor 1-25 Rocket 4.5 06:28:51 10° S 06:34:28 76° E 06:40:03 10° NNE
ATLAS 3B R/B 3.3 06:28:31 10° SSW 06:34:55 61° ESE 06:41:40 10° NE
Cosmos 1174 3.6 06:35:20 10° SSW 06:38:16 63° ESE 06:41:22 10° NE
ADEOS 4.2 06:33:37 10° N 06:38:18 34° WNW 06:42:58 10° SW
Cosmos 1500 4.0 06:34:54 10° S 06:38:38 55° E 06:42:22 10° NNE
ATLAS 5 CENTAUR R/B 1.9 06:34:56 10° SSW 06:38:44 65° SE 06:43:03 10° NE
Cosmos 158 Rocket 4.0 06:34:27 10° NNW 06:39:34 81° WSW 06:44:48 10° SSE
Cosmos 1515 3.8 06:41:33 10° NNW 06:45:15 52° W 06:48:57 10° S
Cosmos 1354 Rocket 4.4 06:40:49 10° SW 06:45:47 41° WNW 06:50:49 10° NNE
Okean 1 3.3 06:42:16 10° N 06:46:16 86° E 06:50:12 10° S
CZ-2C R/B 3.4 06:42:18 10° N 06:46:45 38° WNW 06:51:19 10° SW
